Skip Page Navigation
NASA JPL Caltech
NASA Logo - Jet Propulsion Laboratory + View the NASA Portal
+ Center for Near-Earth Object Studies
JPL Home Earth Solar System Stars & Galaxies Technology
JPL Solar System Dynamics
BODIES ORBITS EPHEMERIDES TOOLS PHYSICAL DATA DISCOVERY FAQ SITE MAP

Significant website upgrade scheduled for September 27. More details available here.

JPL Small-Body Database Browser
Search: [ help ]  
90951 (1997 VX6)
Classification: Main-belt Asteroid          SPK-ID: 2090951
Ephemeris | Orbit Diagram | Orbital Elements | Mission Design | Physical Parameters | Discovery Circumstances ]

[ show orbit diagram ]
Orbital Elements at Epoch 2459396.5 (2021-Jul-01.0) TDB
Reference: JPL 18 (heliocentric ecliptic J2000)
 Element Value Uncertainty (1-sigma)   Units 
e .208609199977878 2.9781e-08  
a 2.361528645182999 7.1799e-09 au
q 1.868892043786532 7.1277e-08 au
i 2.651828683171592 4.3764e-06 deg
node 41.84585064900271 7.9775e-05 deg
peri 58.77069359458618 8.0777e-05 deg
M 149.7878142745501 1.1111e-05 deg
tp 2458844.978767624707
(2019-Dec-27.47876762)
4.037e-05 TDB
period 1325.526009019547
3.63
6.0452e-06
1.655e-08
d
yr
n .2715902951359524 1.2386e-09 deg/d
Q 2.854165246579467 8.6777e-09 au
  Orbit Determination Parameters
   # obs. used (total)      607  
   data-arc span      10712 days (29.33 yr)  
   first obs. used      1991-01-11  
   last obs. used      2020-05-10  
   planetary ephem.      DE441  
   SB-pert. ephem.      SB441-N16  
   condition code      0  
   norm. resid. RMS      .52108  
   source      ORB  
   producer      Otto Matic  
   solution date      2021-Jul-08 23:39:22  

Additional Information
 Earth MOID = .887595 au 
 Jupiter MOID = 2.3104 au 
 T_jup = 3.520 
[ show covariance matrix ]

Ephemeris | Orbit Diagram | Orbital Elements | Mission Design | Physical Parameters | Discovery Circumstances ]

Physical Parameter Table
Parameter Symbol Value Units Sigma Reference Notes
absolute magnitude H 16.68   n/a E2021B10  

90951 (1997 VX6)          Discovered 1997-Nov-06 by Sato, N. at Chichibu
Reference: 20041028/Numbers.arcLast Updated: 2004-10-29

Alternate Designations
 1997 VX6 = 2002 BJ9 
Ephemeris | Orbit Diagram | Orbital Elements | Mission Design | Physical Parameters | Discovery Circumstances ]
ABOUT SSD CREDITS/AWARDS PRIVACY/COPYRIGHT GLOSSARY LINKS
FirstGov 2021-Sep-21 03:34 UT
(server date/time)  
NASA Home Page
Site Manager:   Ryan S. Park
Webmaster  Alan B. Chamberlin